Home   Weather   Fairfield   Past weeks
Flag for USA

Past Weather in Fairfield, Tennessee, USA — Yesterday and Last 2 Weeks

Now
35 °F

Low clouds.


Feels Like: 35 °F
Forecast: 45 / 33 °F
Wind: No wind

Location: Glasgow Municipal Airport

Current Time: Dec 15, 2019 at 6:50:53 am

Latest Report: Dec 15, 2019 at 6:15 am


Visibility: 7 mi

Pressure: 30.10 "Hg

Humidity: 90%

Dew Point: 32 °F

Location of FairfieldLocation

Past Weather in Fairfield — Graph

°F

Fairfield Temperature Yesterday

Maximum temperature yesterday: 47 °F (at 12:35 pm)
Minimum temperature yesterday: 40 °F (at 10:55 pm)
Average temperature yesterday: 42 °F

High & Low Weather Summary for the Past Weeks

 TemperatureHumidityPressure
High63 °F (Dec 9, 8:15 pm)100% (Nov 30, 5:15 am)30.56 "Hg (Nov 30, 5:15 am)
Low18 °F (Dec 11, 6:55 am)29% (Dec 4, 2:35 pm)29.52 "Hg (Nov 30, 11:55 pm)
Average43 °F73%30.06 "Hg
* Reported Nov 30 5:15 am — Dec 15 5:35 am, Fairfield. Weather by CustomWeather, © 2019

Note: Actual official high and low records may vary slightly from our data, if they occured in-between our weather recording intervals... More about our weather records

Fairfield Weather History for the Previous 24 Hours

Scroll right to see more
 ConditionsComfort  
Time TempWeatherWind HumidityBarometerVisibility
5:35 am
Sun, Dec 15
35 °FFog.3 mph92%30.08 "Hg5 mi
5:15 am35 °FFog.No wind92%30.06 "Hg5 mi
4:55 am35 °FFog.5 mph92%30.06 "Hg5 mi
4:35 am35 °FFog.3 mph95%30.05 "Hg3 mi
4:15 am36 °FFog.3 mph94%30.04 "Hg3 mi
3:55 am36 °FFog.5 mph93%30.04 "Hg3 mi
3:35 am37 °FFog.5 mph91%30.04 "Hg4 mi
3:15 am37 °FFog.7 mph91%30.03 "Hg4 mi
2:55 am38 °FFog.7 mph92%30.02 "Hg4 mi
2:35 am38 °FFog.5 mph91%30.01 "Hg5 mi
2:15 am38 °FFog.3 mph90%29.99 "Hg5 mi
1:55 am38 °FFog.7 mph93%29.98 "Hg3 mi
1:35 am38 °FFog.7 mph93%29.98 "Hg4 mi
1:15 am39 °FMostly cloudy.6 mph89%29.96 "Hg7 mi
12:35 am40 °FOvercast.8 mph87%29.95 "Hg7 mi
12:15 am40 °FMostly cloudy.6 mph88%29.95 "Hg10 mi
11:55 pm
Sat, Dec 14
40 °FMostly cloudy.5 mph87%29.94 "Hg10 mi
11:35 pm40 °FOvercast.6 mph87%29.93 "Hg10 mi
11:15 pm40 °FOvercast.3 mph88%29.93 "Hg10 mi
10:55 pm40 °FMostly cloudy.No wind88%29.93 "Hg10 mi
10:35 pm40 °FOvercast.No wind86%29.93 "Hg10 mi
10:15 pm40 °FMostly cloudy.6 mph86%29.92 "Hg10 mi
9:55 pm40 °FOvercast.6 mph88%29.92 "Hg10 mi
9:35 pm40 °FOvercast.3 mph89%29.91 "Hg10 mi
9:15 pm40 °FOvercast.3 mph91%29.90 "Hg10 mi
8:55 pm40 °FMostly cloudy.3 mph91%29.89 "Hg10 mi
8:35 pm41 °FOvercast.3 mph92%29.89 "Hg10 mi
8:15 pm41 °FOvercast.3 mph94%29.88 "Hg10 mi
7:55 pm41 °FOvercast.No wind93%29.88 "Hg10 mi
7:35 pm41 °FMostly cloudy.No wind91%29.88 "Hg10 mi
7:15 pm41 °FOvercast.No wind93%29.87 "Hg10 mi
6:35 pm40 °FOvercast.No wind98%29.86 "Hg7 mi
6:15 pm41 °FOvercast.No wind95%29.85 "Hg10 mi
5:55 pm41 °FMostly cloudy.No wind89%29.84 "Hg10 mi
5:35 pm42 °FLight rain. Mostly cloudy.5 mph87%29.84 "Hg10 mi
5:15 pm42 °FLight rain. Overcast.5 mph84%29.84 "Hg10 mi
4:55 pm43 °FLight rain. Mostly cloudy.7 mph80%29.84 "Hg10 mi
4:35 pm44 °FMostly cloudy.3 mph79%29.83 "Hg10 mi
4:15 pm44 °FMostly cloudy.3 mph76%29.81 "Hg10 mi
3:35 pm44 °FMostly cloudy.13 mph75%29.80 "Hg10 mi
3:15 pm45 °FBroken clouds.9 mph77%29.79 "Hg10 mi
2:55 pm46 °FMore clouds than sun.8 mph76%29.78 "Hg10 mi
2:35 pm45 °FCloudy.9 mph78%29.78 "Hg10 mi
2:15 pm46 °FMostly cloudy.8 mph78%29.77 "Hg10 mi
1:55 pm46 °FMostly cloudy.12 mph79%29.77 "Hg10 mi
1:35 pm46 °FCloudy.12 mph79%29.76 "Hg10 mi
1:15 pm46 °FMore clouds than sun.13 mph78%29.76 "Hg10 mi
12:55 pm47 °FBroken clouds.9 mph77%29.75 "Hg10 mi
12:35 pm47 °FMostly cloudy.10 mph81%29.75 "Hg10 mi
Weather by CustomWeather, © 2019

See weather overview

Advertising